UAE6AU YPPH-OMDB

Flight info

Callsign UAE6AU
Flight time N/A
Altitude 34000
Route OPEGA1 OPEGA DCT UNDER DCT 27S107E 25S104E DCT POLUM/N0497F360 DCT 16S095E 10S090E 07S087E 05S085E DCT APOVU DCT AKDOB/N0484F380 DCT BIBGO L894 KITAL P570 ITURA M762 VAXAS/N0395F240 M762 MIVEK P574 IMPED IMPED3C
Aircraft A388/J-SADE2E3FGHIJ3J4J5M1RWXY/LB1D1

Departure

Time 2026-05-04 20:25
Airport Perth International Airport (YPPH)

Arrival

Time N/A
Airport Dubai International Airport (OMDB)
Time Latitude Longitude Altitude Speed Heading
2026-05-04 19:50 -31.94052 115.97220 65 ft 0 kts 171°
2026-05-04 20:14 -31.94051 115.97220 72 ft 1 kts 171°
2026-05-04 20:14 -31.94028 115.97217 67 ft 4 kts 178°
2026-05-04 20:14 -31.94001 115.97218 66 ft 4 kts 189°
2026-05-04 20:14 -31.93976 115.97226 63 ft 4 kts 204°
2026-05-04 20:15 -31.93955 115.97242 66 ft 4 kts 224°
2026-05-04 20:15 -31.93942 115.97263 62 ft 1 kts 242°
2026-05-04 20:17 -31.93944 115.97258 62 ft 2 kts 242°
2026-05-04 20:18 -31.93956 115.97223 62 ft 6 kts 256°
2026-05-04 20:18 -31.93955 115.97155 65 ft 10 kts 278°
2026-05-04 20:18 -31.93938 115.97056 67 ft 14 kts 284°
2026-05-04 20:18 -31.93914 115.96944 63 ft 10 kts 284°
2026-05-04 20:19 -31.93927 115.96882 65 ft 7 kts 220°
2026-05-04 20:19 -31.93979 115.96866 67 ft 9 kts 186°
2026-05-04 20:19 -31.94049 115.96852 65 ft 11 kts 193°
2026-05-04 20:19 -31.94134 115.96828 66 ft 14 kts 193°
2026-05-04 20:20 -31.94233 115.96799 66 ft 16 kts 193°
2026-05-04 20:20 -31.94344 115.96768 62 ft 17 kts 193°
2026-05-04 20:20 -31.94464 115.96732 65 ft 18 kts 194°
2026-05-04 20:20 -31.94593 115.96693 66 ft 20 kts 194°
2026-05-04 20:21 -31.94728 115.96654 63 ft 20 kts 193°
2026-05-04 20:21 -31.94868 115.96614 66 ft 21 kts 193°
2026-05-04 20:21 -31.95161 115.96531 67 ft 22 kts 193°
2026-05-04 20:22 -31.95310 115.96486 65 ft 22 kts 196°
2026-05-04 20:22 -31.95461 115.96440 68 ft 23 kts 193°
2026-05-04 20:22 -31.95615 115.96396 68 ft 23 kts 194°
2026-05-04 20:22 -31.95771 115.96351 68 ft 23 kts 194°
2026-05-04 20:23 -31.95869 115.96322 66 ft 9 kts 195°
2026-05-04 20:23 -31.95920 115.96273 65 ft 11 kts 246°
2026-05-04 20:23 -31.95913 115.96194 63 ft 11 kts 289°
2026-05-04 20:23 -31.95891 115.96100 68 ft 13 kts 284°
2026-05-04 20:24 -31.95871 115.96007 67 ft 10 kts 288°
2026-05-04 20:24 -31.95838 115.95982 65 ft 6 kts
2026-05-04 20:24 -31.95748 115.96004 67 ft 36 kts 13°
2026-05-04 20:24 -31.95244 115.96151 68 ft 110 kts 13°
2026-05-04 20:25 -31.94315 115.96421 67 ft 160 kts 14°
2026-05-04 20:25 -31.93184 115.96744 372 ft 170 kts 15°
2026-05-04 20:25 -31.92025 115.97048 910 ft 173 kts 14°
2026-05-04 20:25 -31.90835 115.97343 1440 ft 175 kts 15°
2026-05-04 20:26 -31.89675 115.97629 2060 ft 165 kts 16°
2026-05-04 20:26 -31.88530 115.97825 2460 ft 170 kts
2026-05-04 20:26 -31.87364 115.97478 2853 ft 178 kts 338°
2026-05-04 20:26 -31.86398 115.96531 3201 ft 189 kts 309°
2026-05-04 20:27 -31.85922 115.95024 3377 ft 205 kts 278°
2026-05-04 20:27 -31.85789 115.93319 3532 ft 214 kts 277°
2026-05-04 20:27 -31.85643 115.91509 3607 ft 234 kts 277°
2026-05-04 20:27 -31.85452 115.89505 3686 ft 259 kts 278°
2026-05-04 20:28 -31.85194 115.87334 3985 ft 274 kts 280°
2026-05-04 20:28 -31.84905 115.85101 4552 ft 277 kts 279°
2026-05-04 20:28 -31.84602 115.82874 5296 ft 274 kts 279°
2026-05-04 20:28 -31.84283 115.80665 5943 ft 275 kts 279°
2026-05-04 20:29 -31.83965 115.78430 6491 ft 280 kts 278°
2026-05-04 20:29 -31.83659 115.76160 7081 ft 282 kts 278°
2026-05-04 20:29 -31.83364 115.73896 7657 ft 284 kts 278°
2026-05-04 20:29 -31.83065 115.71561 8240 ft 286 kts 278°
2026-05-04 20:30 -31.82770 115.69253 8734 ft 292 kts 277°
2026-05-04 20:30 -31.82625 115.66879 9291 ft 293 kts 264°
2026-05-04 20:30 -31.83053 115.64533 9838 ft 294 kts 247°
2026-05-04 20:30 -31.83853 115.62312 10377 ft 296 kts 246°
2026-05-04 20:31 -31.84650 115.60034 10642 ft 309 kts 246°
2026-05-04 20:31 -31.85470 115.57632 10779 ft 324 kts 246°
2026-05-04 20:31 -31.86302 115.55100 10911 ft 339 kts 251°
2026-05-04 20:31 -31.86664 115.52331 11252 ft 347 kts 269°
2026-05-04 20:32 -31.86346 115.49487 11595 ft 355 kts 285°
2026-05-04 20:32 -31.85658 115.46702 12180 ft 355 kts 285°
2026-05-04 20:32 -31.85212 115.44836 12365 ft 362 kts 284°
2026-05-04 20:32 -31.84321 115.40993 13085 ft 364 kts 284°
2026-05-04 20:33 -31.83659 115.38123 13705 ft 365 kts 284°
2026-05-04 20:33 -31.82983 115.35209 14149 ft 369 kts 284°
2026-05-04 20:33 -31.82307 115.32304 14783 ft 368 kts 285°
2026-05-04 20:33 -31.81641 115.29448 15116 ft 376 kts 285°
2026-05-04 20:34 -31.81166 115.27406 15486 ft 376 kts 284°
2026-05-04 20:34 -31.80638 115.24414 16113 ft 375 kts 281°
2026-05-04 20:34 -31.79966 115.20391 16766 ft 379 kts 281°
2026-05-04 20:34 -31.79618 115.18328 17186 ft 379 kts 281°
2026-05-04 20:35 -31.79110 115.15330 17773 ft 380 kts 281°
2026-05-04 20:35 -31.78591 115.12272 18316 ft 382 kts 281°
2026-05-04 20:35 -31.78069 115.09207 18837 ft 384 kts 281°
2026-05-04 20:35 -31.77545 115.06129 19328 ft 385 kts 281°
2026-05-04 20:36 -31.77017 115.03033 19780 ft 388 kts 281°
2026-05-04 20:36 -31.76487 114.99927 20273 ft 388 kts 281°
2026-05-04 20:36 -31.75953 114.96804 20731 ft 391 kts 281°
2026-05-04 20:36 -31.75415 114.93661 21168 ft 393 kts 281°
2026-05-04 20:37 -31.74877 114.90528 21760 ft 391 kts 281°
2026-05-04 20:37 -31.74337 114.87386 22149 ft 395 kts 281°
2026-05-04 20:37 -31.73786 114.84192 22548 ft 398 kts 281°
2026-05-04 20:37 -31.73239 114.81015 23074 ft 398 kts 281°
2026-05-04 20:38 -31.72689 114.77832 23684 ft 397 kts 281°
2026-05-04 20:38 -31.72140 114.74652 24098 ft 399 kts 281°
2026-05-04 20:38 -31.71584 114.71436 24324 ft 405 kts 281°
2026-05-04 20:38 -31.71019 114.68176 24622 ft 409 kts 281°
2026-05-04 20:39 -31.70449 114.64893 25041 ft 410 kts 281°
2026-05-04 20:39 -31.69878 114.61615 25458 ft 411 kts 281°
2026-05-04 20:39 -31.69300 114.58296 25695 ft 417 kts 281°
2026-05-04 20:39 -31.68718 114.54965 26218 ft 414 kts 281°
2026-05-04 20:40 -31.68144 114.51687 26555 ft 418 kts 281°
2026-05-04 20:40 -31.67559 114.48346 26996 ft 417 kts 281°
2026-05-04 20:40 -31.66975 114.45012 27334 ft 420 kts 281°
2026-05-04 20:40 -31.66381 114.41637 27656 ft 422 kts 281°
2026-05-04 20:41 -31.65788 114.38266 28030 ft 423 kts 281°
2026-05-04 20:41 -31.65189 114.34866 28426 ft 423 kts 281°
2026-05-04 20:41 -31.64591 114.31477 28736 ft 426 kts 281°
2026-05-04 20:41 -31.63983 114.28037 28863 ft 433 kts 281°
2026-05-04 20:42 -31.63371 114.24586 29330 ft 430 kts 281°
2026-05-04 20:42 -31.62760 114.21139 29634 ft 433 kts 281°
2026-05-04 20:42 -31.62142 114.17657 29737 ft 439 kts 281°
2026-05-04 20:42 -31.61523 114.14181 30070 ft 440 kts 281°
2026-05-04 20:43 -31.60890 114.10636 30492 ft 438 kts 281°
2026-05-04 20:43 -31.60273 114.07181 30741 ft 440 kts 281°
2026-05-04 20:43 -31.59642 114.03651 30862 ft 444 kts 281°
2026-05-04 20:43 -31.59007 114.00110 31190 ft 442 kts 281°
2026-05-04 20:44 -31.58372 113.96569 31383 ft 445 kts 281°
2026-05-04 20:44 -31.57732 113.93010 31599 ft 447 kts 281°
2026-05-04 20:44 -31.57088 113.89431 31789 ft 449 kts 281°
2026-05-04 20:44 -31.56441 113.85849 32053 ft 449 kts 281°
2026-05-04 20:45 -31.55792 113.82258 32251 ft 451 kts 281°
2026-05-04 20:45 -31.55140 113.78651 32302 ft 454 kts 281°
2026-05-04 20:45 -31.53831 113.71437 32303 ft 451 kts 281°
2026-05-04 20:46 -31.52521 113.64243 32306 ft 451 kts 281°
2026-05-04 20:46 -31.51206 113.57049 32300 ft 451 kts 281°
2026-05-04 20:47 -31.49888 113.49857 32303 ft 451 kts 281°
2026-05-04 20:47 -31.48550 113.42708 32300 ft 452 kts 284°
2026-05-04 20:48 -31.46072 113.35956 32294 ft 454 kts 301°
2026-05-04 20:48 -31.42194 113.30105 32298 ft 455 kts 308°
2026-05-04 20:49 -31.38165 113.24387 32297 ft 455 kts 308°
2026-05-04 20:49 -31.34125 113.18636 32521 ft 457 kts 308°
2026-05-04 20:50 -31.32101 113.15764 32753 ft 458 kts 308°
2026-05-04 20:50 -31.30095 113.12922 32960 ft 459 kts 308°
2026-05-04 20:50 -31.28057 113.10036 33171 ft 460 kts 308°
2026-05-04 20:50 -31.26017 113.07151 33386 ft 461 kts 308°
2026-05-04 20:51 -31.23969 113.04258 33597 ft 462 kts 308°
2026-05-04 20:51 -31.21908 113.01348 33795 ft 463 kts 308°
2026-05-04 20:51 -31.19849 112.98444 33994 ft 465 kts 308°
2026-05-04 20:51 -31.17787 112.95536 34197 ft 466 kts 308°
2026-05-04 20:52 -31.13618 112.89664 34293 ft 475 kts 308°
2026-05-04 20:52 -31.09421 112.83764 34293 ft 471 kts 308°
2026-05-04 20:53 -31.05244 112.77900 34279 ft 472 kts 308°
2026-05-04 20:53 -31.01039 112.72007 34294 ft 472 kts 308°
2026-05-04 20:54 -30.96831 112.66116 34289 ft 472 kts 308°
2026-05-04 20:54 -30.92652 112.60277 34288 ft 472 kts 308°
2026-05-04 20:55 -30.88440 112.54399 34287 ft 473 kts 308°
2026-05-04 20:55 -30.84220 112.48520 34281 ft 472 kts 307°
2026-05-04 20:56 -30.80002 112.42651 34279 ft 473 kts 308°
2026-05-04 20:56 -30.75780 112.36787 34278 ft 473 kts 308°
2026-05-04 20:57 -30.71545 112.30913 34278 ft 473 kts 308°
2026-05-04 20:57 -30.67349 112.25101 34278 ft 473 kts 308°
2026-05-04 20:58 -30.63116 112.19247 34254 ft 473 kts 308°
2026-05-04 20:58 -30.58883 112.13403 34263 ft 473 kts 308°
2026-05-04 20:59 -30.54635 112.07545 34254 ft 473 kts 308°
2026-05-04 20:59 -30.50390 112.01701 34262 ft 474 kts 308°
2026-05-04 21:00 -30.46156 111.95881 34262 ft 474 kts 308°
2026-05-04 21:00 -30.41902 111.90042 34268 ft 474 kts 308°
2026-05-04 21:01 -30.37638 111.84196 34261 ft 475 kts 308°
2026-05-04 21:01 -30.33370 111.78357 34263 ft 475 kts 308°
2026-05-04 21:02 -30.29095 111.72514 34262 ft 475 kts 308°
2026-05-04 21:02 -30.24820 111.66681 34265 ft 475 kts 308°
2026-05-04 21:03 -30.20546 111.60856 34276 ft 474 kts 308°
2026-05-04 21:03 -30.16301 111.55081 34272 ft 474 kts 308°
2026-05-04 21:04 -30.12028 111.49276 34260 ft 473 kts 308°
2026-05-04 21:04 -30.07767 111.43495 34254 ft 473 kts 308°
2026-05-04 21:05 -30.03503 111.37720 34256 ft 472 kts 308°
2026-05-04 21:05 -29.99238 111.31951 34241 ft 472 kts 309°
2026-05-04 21:06 -29.94979 111.26199 34258 ft 471 kts 308°
2026-05-04 21:06 -29.90715 111.20447 34315 ft 474 kts 308°
2026-05-04 21:07 -29.88596 111.17592 34517 ft 475 kts 309°
2026-05-04 21:07 -29.86451 111.14704 34763 ft 474 kts 308°
2026-05-04 21:07 -29.84308 111.11822 34920 ft 476 kts 308°
2026-05-04 21:07 -29.82148 111.08916 35015 ft 479 kts 309°
2026-05-04 21:08 -29.79980 111.06005 35278 ft 476 kts 309°
2026-05-04 21:08 -29.77835 111.03128 35701 ft 472 kts 308°
2026-05-04 21:08 -29.75692 111.00256 35852 ft 473 kts 308°
2026-05-04 21:08 -29.73547 110.97378 36010 ft 474 kts 309°
2026-05-04 21:09 -29.71403 110.94505 36211 ft 474 kts 308°
2026-05-04 21:09 -29.69245 110.91616 36235 ft 475 kts 308°
2026-05-04 21:09 -29.64986 110.85922 36238 ft 468 kts 308°
2026-05-04 21:10 -29.60744 110.80257 36232 ft 470 kts 308°
2026-05-04 21:10 -29.56457 110.74538 36229 ft 473 kts 308°
2026-05-04 21:11 -29.52154 110.68812 36228 ft 473 kts 308°
2026-05-04 21:11 -29.47856 110.63097 36208 ft 473 kts 308°
2026-05-04 21:12 -29.43555 110.57388 36227 ft 472 kts 308°
2026-05-04 21:12 -29.39276 110.51712 36202 ft 473 kts 308°
2026-05-04 21:13 -29.34975 110.46019 36222 ft 472 kts 308°
2026-05-04 21:13 -29.30666 110.40321 36220 ft 472 kts 308°
2026-05-04 21:14 -29.26360 110.34637 36228 ft 472 kts 309°
2026-05-04 21:14 -29.22049 110.28953 36226 ft 472 kts 308°
2026-05-04 21:15 -29.17741 110.23281 36225 ft 472 kts 309°
2026-05-04 21:15 -29.13426 110.17607 36220 ft 472 kts 308°
2026-05-04 21:16 -29.09132 110.11969 36209 ft 473 kts 309°
2026-05-04 21:16 -29.04812 110.06302 36213 ft 473 kts 308°
2026-05-04 21:17 -29.00489 110.00638 36203 ft 473 kts 308°
2026-05-04 21:17 -28.96517 109.94671 36203 ft 471 kts 304°
2026-05-04 21:18 -28.92650 109.88625 36216 ft 471 kts 304°
2026-05-04 21:18 -28.88789 109.82625 36197 ft 472 kts 304°
2026-05-04 21:19 -28.84877 109.76571 36206 ft 472 kts 304°
2026-05-04 21:19 -28.80976 109.70546 36210 ft 472 kts 304°
2026-05-04 21:20 -28.77098 109.64565 36207 ft 472 kts 304°
2026-05-04 21:20 -28.73190 109.58548 36211 ft 472 kts 304°
2026-05-04 21:21 -28.69282 109.52538 36205 ft 472 kts 304°
2026-05-04 21:21 -28.65369 109.46530 36215 ft 472 kts 304°
2026-05-04 21:22 -28.61456 109.40532 36202 ft 471 kts 304°
2026-05-04 21:22 -28.58205 109.35552 36199 ft 471 kts 304°
2026-05-04 21:23 -28.53651 109.28588 36203 ft 471 kts 304°
2026-05-04 21:23 -28.49737 109.22612 36201 ft 471 kts 304°
2026-05-04 21:24 -28.46480 109.17646 36192 ft 471 kts 304°
2026-05-04 21:24 -28.42555 109.11669 36191 ft 470 kts 304°
2026-05-04 21:25 -28.38630 109.05700 36190 ft 470 kts 304°
2026-05-04 21:25 -28.34717 108.99756 36183 ft 470 kts 304°
2026-05-04 21:26 -28.30825 108.93854 36182 ft 470 kts 304°
2026-05-04 21:26 -28.26906 108.87919 36181 ft 470 kts 304°
2026-05-04 21:27 -28.22980 108.81982 36182 ft 470 kts 304°
2026-05-04 21:27 -28.19058 108.76059 36190 ft 469 kts 304°
2026-05-04 21:28 -28.15139 108.70149 36184 ft 469 kts 304°
2026-05-04 21:28 -28.11214 108.64238 36181 ft 469 kts 304°
2026-05-04 21:29 -28.07288 108.58333 36182 ft 469 kts 304°
2026-05-04 21:29 -28.03392 108.52481 36176 ft 468 kts 304°
2026-05-04 21:30 -27.99458 108.46581 36175 ft 468 kts 304°
2026-05-04 21:30 -27.95540 108.40714 36187 ft 467 kts 304°
2026-05-04 21:31 -27.89665 108.31928 36182 ft 466 kts 304°
2026-05-04 21:32 -27.85754 108.26090 36173 ft 465 kts 304°
2026-05-04 21:32 -27.81874 108.20305 36174 ft 465 kts 304°
2026-05-04 21:33 -27.77964 108.14485 36162 ft 464 kts 304°
2026-05-04 21:33 -27.74054 108.08671 36144 ft 464 kts 303°
2026-05-04 21:34 -27.70148 108.02874 36183 ft 462 kts 303°
2026-05-04 21:34 -27.66264 107.97114 36180 ft 461 kts 303°
2026-05-04 21:35 -27.62404 107.91397 36155 ft 460 kts 303°
2026-05-04 21:35 -27.58528 107.85665 36154 ft 459 kts 303°
2026-05-04 21:36 -27.54659 107.79950 36149 ft 458 kts 303°
2026-05-04 21:36 -27.50788 107.74239 36146 ft 458 kts 303°
2026-05-04 21:37 -27.46945 107.68581 36155 ft 457 kts 303°
2026-05-04 21:37 -27.43085 107.62900 36159 ft 456 kts 303°
2026-05-04 21:38 -27.39227 107.57231 36153 ft 455 kts 303°
2026-05-04 21:38 -27.35390 107.51602 36130 ft 455 kts 303°
2026-05-04 21:39 -27.31534 107.45950 36127 ft 455 kts 303°
2026-05-04 21:39 -27.27673 107.40298 36126 ft 455 kts 303°
2026-05-04 21:40 -27.23817 107.34665 36176 ft 453 kts 302°
2026-05-04 21:40 -27.19976 107.29057 36167 ft 453 kts 302°
2026-05-04 21:41 -27.16134 107.23453 36158 ft 452 kts 302°
2026-05-04 21:41 -27.12298 107.17868 36160 ft 451 kts 302°
2026-05-04 21:42 -27.08486 107.12324 36149 ft 450 kts 302°
2026-05-04 21:42 -27.04651 107.06751 36143 ft 450 kts 302°
2026-05-04 21:43 -27.00830 107.01203 36122 ft 449 kts 302°
2026-05-04 21:43 -26.97096 106.95621 36151 ft 446 kts 300°
2026-05-04 21:44 -26.93509 106.89998 36143 ft 445 kts 300°
2026-05-04 21:44 -26.89893 106.84372 36138 ft 444 kts 300°
2026-05-04 21:45 -26.86272 106.78772 36133 ft 444 kts 301°
2026-05-04 21:45 -26.82645 106.73179 36132 ft 443 kts 301°
2026-05-04 21:46 -26.79019 106.67595 36120 ft 443 kts 300°
2026-05-04 21:46 -26.75414 106.62050 36120 ft 443 kts 300°
2026-05-04 21:47 -26.71783 106.56470 36118 ft 443 kts 301°
2026-05-04 21:47 -26.68145 106.50888 36119 ft 444 kts 301°
2026-05-04 21:48 -26.64511 106.45319 36123 ft 444 kts 301°
2026-05-04 21:48 -26.60883 106.39765 36121 ft 445 kts 301°
2026-05-04 21:49 -26.57210 106.34149 36118 ft 445 kts 300°
2026-05-04 21:49 -26.53570 106.28591 36131 ft 446 kts 300°
2026-05-04 21:50 -26.49916 106.23022 36174 ft 443 kts 300°
2026-05-04 21:50 -26.46272 106.17471 36171 ft 443 kts 300°
2026-05-04 21:51 -26.42630 106.11929 36161 ft 442 kts 300°
2026-05-04 21:51 -26.38996 106.06407 36152 ft 440 kts 300°
2026-05-04 21:52 -26.35389 106.00934 36131 ft 439 kts 300°
2026-05-04 21:52 -26.31775 105.95456 36125 ft 438 kts 300°
2026-05-04 21:53 -26.28174 105.90003 36121 ft 436 kts 300°
2026-05-04 21:53 -26.24582 105.84574 36138 ft 433 kts 299°
2026-05-04 21:54 -26.21010 105.79177 36123 ft 432 kts 299°
2026-05-04 21:54 -26.17467 105.73831 36115 ft 431 kts 299°
2026-05-04 21:55 -26.13906 105.68465 36092 ft 430 kts 299°
2026-05-04 21:55 -26.10355 105.63120 36086 ft 429 kts 299°
2026-05-04 21:56 -26.06804 105.57782 36089 ft 428 kts 299°
2026-05-04 21:56 -26.03283 105.52492 36087 ft 428 kts 299°
2026-05-04 21:57 -25.99742 105.47185 36106 ft 427 kts 299°
2026-05-04 21:57 -25.96203 105.41880 36105 ft 427 kts 299°
2026-05-04 21:58 -25.92661 105.36579 36105 ft 427 kts 299°
2026-05-04 21:58 -25.89118 105.31282 36105 ft 427 kts 299°
2026-05-04 21:59 -25.85567 105.25981 36099 ft 427 kts 299°
2026-05-04 21:59 -25.82037 105.20716 36106 ft 428 kts 299°
2026-05-04 22:00 -25.78480 105.15417 36106 ft 429 kts 299°
2026-05-04 22:00 -25.74909 105.10104 36128 ft 428 kts 299°
2026-05-04 22:01 -25.71346 105.04809 36119 ft 428 kts 299°
2026-05-04 22:01 -25.67782 104.99517 36120 ft 428 kts 299°
2026-05-04 22:02 -25.64207 104.94216 36119 ft 428 kts 299°
2026-05-04 22:02 -25.60637 104.88929 36115 ft 428 kts 299°
2026-05-04 22:03 -25.57088 104.83678 36115 ft 428 kts 299°
2026-05-04 22:03 -25.53499 104.78373 36115 ft 428 kts 299°
2026-05-04 22:04 -25.49937 104.73115 36079 ft 428 kts 299°
2026-05-04 22:04 -25.46372 104.67860 36119 ft 426 kts 299°
2026-05-04 22:05 -25.42809 104.62611 36117 ft 426 kts 299°
2026-05-04 22:05 -25.39249 104.57373 36116 ft 425 kts 299°
2026-05-04 22:06 -25.35696 104.52151 36117 ft 425 kts 299°
2026-05-04 22:06 -25.32163 104.46964 36102 ft 424 kts 299°
2026-05-04 22:07 -25.28609 104.41752 36094 ft 424 kts 299°
2026-05-04 22:07 -25.25056 104.36548 36090 ft 424 kts 299°
2026-05-04 22:08 -25.21509 104.31359 36097 ft 422 kts 298°
2026-05-04 22:08 -25.17966 104.26181 36095 ft 422 kts 298°
2026-05-04 22:09 -25.14427 104.21012 36085 ft 422 kts 298°
2026-05-04 22:09 -25.10879 104.15837 36086 ft 422 kts 298°
2026-05-04 22:10 -25.07334 104.10672 36090 ft 422 kts 299°
2026-05-04 22:10 -25.03811 104.05542 36091 ft 422 kts 299°
2026-05-04 22:11 -25.00229 104.00388 36089 ft 425 kts 301°
2026-05-04 22:11 -24.96148 103.95571 36072 ft 430 kts 305°
2026-05-04 22:12 -24.92011 103.90816 36088 ft 429 kts 304°
2026-05-04 22:12 -24.87882 103.86054 36096 ft 430 kts 304°
2026-05-04 22:13 -24.84444 103.82094 36090 ft 430 kts 304°
2026-05-04 22:13 -24.80295 103.77321 36096 ft 431 kts 304°
2026-05-04 22:14 -24.76170 103.72583 36111 ft 431 kts 304°
2026-05-04 22:14 -24.72011 103.67810 36110 ft 432 kts 304°
2026-05-04 22:15 -24.67852 103.63043 36105 ft 431 kts 305°
2026-05-04 22:15 -24.63684 103.58274 36095 ft 432 kts 305°
2026-05-04 22:16 -24.59521 103.53513 36099 ft 432 kts 305°
2026-05-04 22:16 -24.55374 103.48777 36093 ft 432 kts 305°
2026-05-04 22:17 -24.51204 103.44019 36093 ft 432 kts 305°
2026-05-04 22:17 -24.47029 103.39260 36094 ft 432 kts 305°
2026-05-04 22:18 -24.42851 103.34502 36097 ft 432 kts 305°
2026-05-04 22:18 -24.38674 103.29751 36079 ft 432 kts 305°
2026-05-04 22:19 -24.34504 103.25012 36078 ft 432 kts 305°
2026-05-04 22:19 -24.30350 103.20294 36088 ft 433 kts 305°
2026-05-04 22:20 -24.26165 103.15549 36090 ft 433 kts 305°
2026-05-04 22:20 -24.21965 103.10790 36093 ft 434 kts 305°
2026-05-04 22:21 -24.17766 103.06038 36095 ft 434 kts 305°
2026-05-04 22:21 -24.13563 103.01285 36098 ft 435 kts 305°
2026-05-04 22:22 -24.09355 102.96533 36101 ft 435 kts 305°
2026-05-04 22:22 -24.05135 102.91771 36100 ft 435 kts 305°
2026-05-04 22:23 -24.00947 102.87049 36105 ft 435 kts 305°
2026-05-04 22:23 -23.96723 102.82293 36099 ft 436 kts 305°
2026-05-04 22:24 -23.92493 102.77535 36099 ft 435 kts 306°
2026-05-04 22:24 -23.88266 102.72784 36100 ft 435 kts 306°
2026-05-04 22:25 -23.84051 102.68051 36079 ft 435 kts 306°
2026-05-04 22:25 -23.79825 102.63311 36080 ft 435 kts 306°
2026-05-04 22:26 -23.75603 102.58579 36083 ft 435 kts 306°
2026-05-04 22:26 -23.71380 102.53852 36082 ft 435 kts 306°
2026-05-04 22:27 -23.67176 102.49151 36084 ft 435 kts 306°
2026-05-04 22:27 -23.62933 102.44410 36086 ft 436 kts 306°
2026-05-04 22:28 -23.58698 102.39683 36078 ft 436 kts 306°
2026-05-04 22:28 -23.54453 102.34950 36074 ft 436 kts 306°
2026-05-04 22:29 -23.50203 102.30215 36078 ft 437 kts 306°
2026-05-04 22:29 -23.45957 102.25490 36082 ft 437 kts 306°
2026-05-04 22:30 -23.41724 102.20784 36086 ft 438 kts 306°
2026-05-04 22:30 -23.37455 102.16043 36084 ft 438 kts 306°
2026-05-04 22:31 -23.33177 102.11296 36089 ft 439 kts 306°
2026-05-04 22:31 -23.28900 102.06554 36091 ft 439 kts 306°
2026-05-04 22:32 -23.24625 102.01820 36083 ft 439 kts 306°
2026-05-04 22:32 -23.20342 101.97082 36078 ft 439 kts 307°
2026-05-04 22:33 -23.16051 101.92340 36084 ft 440 kts 307°
2026-05-04 22:33 -23.11787 101.87632 36083 ft 440 kts 307°
2026-05-04 22:34 -23.07486 101.82887 36085 ft 440 kts 307°
2026-05-04 22:34 -23.03180 101.78142 36089 ft 440 kts 307°
2026-05-04 22:35 -22.98877 101.73404 36065 ft 440 kts 307°
2026-05-04 22:35 -22.94577 101.68674 36077 ft 440 kts 307°
2026-05-04 22:36 -22.90272 101.63943 36077 ft 440 kts 307°
2026-05-04 22:36 -22.85989 101.59241 36081 ft 440 kts 307°
2026-05-04 22:37 -22.81679 101.54514 36081 ft 441 kts 307°
2026-05-04 22:37 -22.77363 101.49785 36081 ft 441 kts 307°
2026-05-04 22:38 -22.73048 101.45062 36079 ft 441 kts 307°
2026-05-04 22:38 -22.68728 101.40337 36051 ft 441 kts 307°
2026-05-04 22:39 -22.64430 101.35640 36064 ft 441 kts 307°
2026-05-04 22:39 -22.60102 101.30916 36063 ft 442 kts 307°
2026-05-04 22:40 -22.55778 101.26201 36067 ft 442 kts 308°
2026-05-04 22:40 -22.51444 101.21478 36076 ft 442 kts 308°
2026-05-04 22:41 -22.47092 101.16741 36090 ft 443 kts 308°
2026-05-04 22:41 -22.42773 101.12045 36089 ft 444 kts 308°
2026-05-04 22:42 -22.38416 101.07311 36066 ft 444 kts 308°
2026-05-04 22:42 -22.34048 101.02570 36075 ft 444 kts 308°
2026-05-04 22:43 -22.29688 100.97842 36079 ft 445 kts 308°
2026-05-04 22:43 -22.25311 100.93100 36080 ft 445 kts 308°
2026-05-04 22:44 -22.20936 100.88365 36080 ft 445 kts 308°
2026-05-04 22:44 -22.16560 100.83633 36087 ft 445 kts 308°
2026-05-04 22:45 -22.12203 100.78926 36083 ft 446 kts 308°
2026-05-04 22:45 -22.05622 100.71826 36080 ft 445 kts 308°
2026-05-04 22:46 -22.01241 100.67103 36080 ft 445 kts 308°
2026-05-04 22:46 -21.96861 100.62387 36078 ft 445 kts 308°
2026-05-04 22:47 -21.92506 100.57702 36079 ft 445 kts 308°
2026-05-04 22:47 -21.88098 100.52964 36077 ft 445 kts 308°
2026-05-04 22:48 -21.83721 100.48264 36078 ft 445 kts 308°
2026-05-04 22:48 -21.79339 100.43562 36054 ft 444 kts 308°
2026-05-04 22:49 -21.74963 100.38872 36071 ft 444 kts 308°
2026-05-04 22:49 -21.70609 100.34210 36068 ft 444 kts 308°
2026-05-04 22:50 -21.66228 100.29521 36065 ft 444 kts 308°
2026-05-04 22:50 -21.61845 100.24836 36070 ft 444 kts 308°
2026-05-04 22:51 -21.57461 100.20154 36060 ft 444 kts 308°
2026-05-04 22:51 -21.53102 100.15502 36071 ft 444 kts 308°
2026-05-04 22:52 -21.48713 100.10824 36060 ft 444 kts 308°
2026-05-04 22:52 -21.44321 100.06146 36062 ft 444 kts 308°
2026-05-04 22:53 -21.39929 100.01472 36061 ft 444 kts 308°
2026-05-04 22:53 -21.35566 99.96833 36067 ft 445 kts 308°
2026-05-04 22:54 -21.31172 99.92165 36072 ft 445 kts 308°
2026-05-04 22:54 -21.26767 99.87490 36074 ft 445 kts 308°
2026-05-04 22:55 -21.22364 99.82820 36067 ft 445 kts 309°
2026-05-04 22:55 -21.17959 99.78154 36069 ft 445 kts 309°
2026-05-04 22:56 -21.13546 99.73484 36071 ft 446 kts 309°
2026-05-04 22:56 -21.09136 99.68820 36070 ft 446 kts 309°
2026-05-04 22:57 -21.04722 99.64155 36071 ft 446 kts 309°
2026-05-04 22:57 -21.00308 99.59495 36071 ft 446 kts 309°
2026-05-04 22:58 -20.95910 99.54857 36068 ft 446 kts 309°
2026-05-04 22:58 -20.91494 99.50203 36069 ft 445 kts 309°
2026-05-04 22:59 -20.87069 99.45544 36043 ft 445 kts 309°
2026-05-04 22:59 -20.82658 99.40904 36057 ft 445 kts 309°
2026-05-04 23:00 -20.78990 99.37047 36061 ft 445 kts 309°
2026-05-04 23:00 -20.74572 99.32407 36059 ft 445 kts 309°
2026-05-04 23:01 -20.70154 99.27771 36058 ft 445 kts 309°
2026-05-04 23:01 -20.65730 99.23132 36059 ft 445 kts 309°
2026-05-04 23:02 -20.61301 99.18492 36058 ft 446 kts 309°
2026-05-04 23:02 -20.56870 99.13854 36059 ft 446 kts 309°
2026-05-04 23:03 -20.52440 99.09221 36046 ft 446 kts 309°
2026-05-04 23:03 -20.48032 99.04615 36046 ft 446 kts 309°
2026-05-04 23:04 -20.43592 98.99980 36051 ft 447 kts 309°
2026-05-04 23:04 -20.39146 98.95342 36056 ft 447 kts 309°
2026-05-04 23:05 -20.34697 98.90704 36054 ft 448 kts 309°
2026-05-04 23:05 -20.30236 98.86059 36057 ft 448 kts 309°
2026-05-04 23:06 -20.25769 98.81411 36059 ft 449 kts 309°
2026-05-04 23:06 -20.21300 98.76764 36054 ft 449 kts 310°
2026-05-04 23:07 -20.16829 98.72118 36051 ft 449 kts 310°
2026-05-04 23:07 -20.12352 98.67469 36053 ft 449 kts 310°
2026-05-04 23:08 -20.07878 98.62828 36055 ft 450 kts 310°
2026-05-04 23:08 -20.03421 98.58207 36061 ft 450 kts 310°
2026-05-04 23:09 -19.98873 98.53629 36058 ft 453 kts 314°
2026-05-04 23:09 -19.94077 98.49289 36053 ft 452 kts 313°
2026-05-04 23:10 -19.89309 98.44912 36044 ft 452 kts 313°
2026-05-04 23:10 -19.84537 98.40543 36042 ft 452 kts 313°
2026-05-04 23:11 -19.79763 98.36184 36045 ft 453 kts 313°
2026-05-04 23:11 -19.75010 98.31847 36045 ft 453 kts 313°
2026-05-04 23:12 -19.70225 98.27488 36043 ft 453 kts 313°
2026-05-04 23:12 -19.65436 98.23128 36042 ft 454 kts 313°
2026-05-04 23:13 -19.60645 98.18770 36020 ft 454 kts 314°
2026-05-04 23:13 -19.55848 98.14409 36035 ft 454 kts 314°
2026-05-04 23:14 -19.51044 98.10047 36040 ft 455 kts 314°
2026-05-04 23:14 -19.46231 98.05680 36041 ft 455 kts 314°
2026-05-04 23:15 -19.41412 98.01310 36040 ft 456 kts 314°
2026-05-04 23:15 -19.36597 97.96948 36044 ft 456 kts 314°
2026-05-04 23:16 -19.31799 97.92605 36053 ft 456 kts 314°
2026-05-04 23:16 -19.26975 97.88242 36040 ft 456 kts 314°
2026-05-04 23:17 -19.22147 97.83879 36043 ft 456 kts 314°
2026-05-04 23:17 -19.17306 97.79507 36042 ft 456 kts 314°
2026-05-04 23:18 -19.12468 97.75142 36041 ft 456 kts 314°
2026-05-04 23:18 -19.07635 97.70783 36035 ft 456 kts 314°
2026-05-04 23:19 -19.02819 97.66446 36035 ft 456 kts 314°
2026-05-04 23:19 -18.97988 97.62096 36035 ft 456 kts 314°
2026-05-04 23:20 -18.93154 97.57748 36011 ft 456 kts 314°
2026-05-04 23:20 -18.88320 97.53404 36017 ft 457 kts 314°
2026-05-04 23:21 -18.83515 97.49088 36019 ft 457 kts 314°
2026-05-04 23:21 -18.78658 97.44730 36021 ft 457 kts 314°
2026-05-04 23:22 -18.73803 97.40376 36022 ft 458 kts 314°
2026-05-04 23:22 -18.68946 97.36025 36026 ft 458 kts 314°
2026-05-04 23:23 -18.64112 97.31697 36029 ft 459 kts 314°
2026-05-04 23:23 -18.59245 97.27343 36021 ft 459 kts 314°
2026-05-04 23:24 -18.54365 97.22982 36019 ft 460 kts 314°
2026-05-04 23:24 -18.49486 97.18624 36021 ft 460 kts 314°
2026-05-04 23:25 -18.44594 97.14258 36042 ft 460 kts 314°
2026-05-04 23:25 -18.39703 97.09897 36046 ft 461 kts 314°
2026-05-04 23:26 -18.34842 97.05565 36035 ft 461 kts 314°
2026-05-04 23:26 -18.29941 97.01201 36029 ft 461 kts 314°
2026-05-04 23:27 -18.25044 96.96844 36023 ft 461 kts 315°
2026-05-04 23:27 -18.20144 96.92488 36025 ft 461 kts 315°
2026-05-04 23:28 -18.15240 96.88131 36022 ft 461 kts 315°
2026-05-04 23:28 -18.10338 96.83780 36016 ft 461 kts 315°
2026-05-04 23:29 -18.05431 96.79426 36021 ft 461 kts 315°
2026-05-04 23:29 -18.00555 96.75105 36018 ft 461 kts 315°
2026-05-04 23:30 -17.95652 96.70763 36023 ft 461 kts 315°
2026-05-04 23:30 -17.90749 96.66423 36020 ft 461 kts 315°
2026-05-04 23:31 -17.85842 96.62084 36016 ft 461 kts 315°
2026-05-04 23:31 -17.80933 96.57746 36016 ft 461 kts 315°
2026-05-04 23:32 -17.76021 96.53408 36012 ft 461 kts 315°
2026-05-04 23:32 -17.71149 96.49109 36014 ft 461 kts 315°
2026-05-04 23:33 -17.66232 96.44773 36008 ft 461 kts 315°
2026-05-04 23:33 -17.61318 96.40444 35997 ft 461 kts 315°
2026-05-04 23:34 -17.56404 96.36117 35998 ft 461 kts 315°
2026-05-04 23:34 -17.51489 96.31793 35999 ft 462 kts 315°
2026-05-04 23:35 -17.46588 96.27484 36007 ft 462 kts 315°
2026-05-04 23:35 -17.41673 96.23166 36009 ft 462 kts 315°
2026-05-04 23:36 -17.36737 96.18833 36012 ft 463 kts 315°
2026-05-04 23:36 -17.31803 96.14505 36011 ft 463 kts 315°
2026-05-04 23:37 -17.26863 96.10174 36012 ft 463 kts 315°
2026-05-04 23:37 -17.21924 96.05848 36010 ft 463 kts 315°
2026-05-04 23:38 -17.16974 96.01516 36011 ft 463 kts 315°
2026-05-04 23:38 -17.12061 95.97218 36012 ft 463 kts 315°
2026-05-04 23:39 -17.07110 95.92890 36013 ft 463 kts 315°
2026-05-04 23:39 -17.02172 95.88577 36012 ft 463 kts 315°
2026-05-04 23:40 -16.97210 95.84247 36011 ft 463 kts 315°
2026-05-04 23:40 -16.92263 95.79931 36017 ft 463 kts 316°
2026-05-04 23:41 -16.87324 95.75627 36013 ft 462 kts 316°
2026-05-04 23:41 -16.82423 95.71358 36012 ft 462 kts 316°
2026-05-04 23:42 -16.77472 95.67049 36327 ft 462 kts 316°
2026-05-04 23:42 -16.75003 95.64902 36599 ft 461 kts 316°
2026-05-04 23:42 -16.72547 95.62767 36849 ft 460 kts 316°
2026-05-04 23:43 -16.70080 95.60622 37008 ft 462 kts 316°
2026-05-04 23:43 -16.67607 95.58472 37001 ft 461 kts 316°
2026-05-04 23:43 -16.62703 95.54215 37003 ft 457 kts 316°
2026-05-04 23:44 -16.57787 95.49944 37001 ft 461 kts 316°
2026-05-04 23:44 -16.52896 95.45703 36999 ft 460 kts 316°
2026-05-04 23:45 -16.47970 95.41434 36998 ft 460 kts 316°
2026-05-04 23:45 -16.43046 95.37169 36997 ft 460 kts 316°
2026-05-04 23:46 -16.38118 95.32903 36999 ft 460 kts 316°
2026-05-04 23:46 -16.33184 95.28635 36998 ft 460 kts 316°
2026-05-04 23:47 -16.28293 95.24407 36986 ft 460 kts 316°
2026-05-04 23:47 -16.23361 95.20146 36972 ft 461 kts 317°
2026-05-04 23:48 -16.18423 95.15884 36975 ft 461 kts 317°
2026-05-04 23:48 -16.13479 95.11618 36974 ft 462 kts 317°
2026-05-04 23:49 -16.08521 95.07343 36982 ft 463 kts 317°
2026-05-04 23:49 -16.03556 95.03064 36986 ft 463 kts 317°
2026-05-04 23:50 -15.98589 94.98786 36988 ft 464 kts 317°
2026-05-04 23:50 -15.93630 94.94519 36989 ft 465 kts 317°
2026-05-04 23:51 -15.89487 94.90949 36985 ft 465 kts 317°
2026-05-04 23:51 -15.84492 94.86647 36990 ft 466 kts 317°
2026-05-04 23:52 -15.79497 94.82346 36993 ft 467 kts 317°
2026-05-04 23:52 -15.74491 94.78039 36997 ft 467 kts 317°
2026-05-04 23:53 -15.69481 94.73731 36995 ft 468 kts 317°
2026-05-04 23:53 -15.64463 94.69420 36995 ft 468 kts 317°
2026-05-04 23:54 -15.59441 94.65108 36998 ft 468 kts 317°
2026-05-04 23:54 -15.54453 94.60829 36984 ft 468 kts 318°
2026-05-04 23:55 -15.49419 94.56513 36983 ft 468 kts 318°
2026-05-04 23:56 -15.41882 94.50058 36981 ft 468 kts 318°
2026-05-04 23:56 -15.36859 94.45759 36981 ft 468 kts 318°
2026-05-04 23:57 -15.31875 94.41495 36975 ft 468 kts 318°
2026-05-04 23:57 -15.26850 94.37200 36971 ft 468 kts 318°
2026-05-04 23:58 -15.21830 94.32911 36965 ft 468 kts 318°
2026-05-04 23:58 -15.16811 94.28627 36964 ft 468 kts 318°
2026-05-04 23:59 -15.11781 94.24336 36959 ft 468 kts 318°
2026-05-04 23:59 -15.06758 94.20053 36960 ft 468 kts 319°
2026-05-05 00:00 -15.01727 94.15766 36966 ft 468 kts 319°
2026-05-05 00:00 -14.96698 94.11484 36969 ft 468 kts 319°
2026-05-05 00:01 -14.91690 94.07222 36967 ft 468 kts 319°
2026-05-05 00:01 -14.86658 94.02942 36954 ft 469 kts 319°
2026-05-05 00:02 -14.81614 93.98655 36957 ft 469 kts 319°
2026-05-05 00:02 -14.76571 93.94372 36959 ft 469 kts 319°
2026-05-05 00:03 -14.71519 93.90084 36964 ft 470 kts 319°
2026-05-05 00:03 -14.66457 93.85789 36966 ft 470 kts 319°
2026-05-05 00:04 -14.61396 93.81499 36964 ft 470 kts 319°
2026-05-05 00:04 -14.56336 93.77211 36971 ft 471 kts 319°
2026-05-05 00:05 -14.51280 93.72929 36971 ft 471 kts 319°
2026-05-05 00:05 -14.46238 93.68663 36968 ft 471 kts 319°
2026-05-05 00:06 -14.41173 93.64379 36970 ft 470 kts 319°
2026-05-05 00:06 -14.36103 93.60093 36967 ft 470 kts 319°
2026-05-05 00:07 -14.31039 93.55816 36959 ft 470 kts 319°
2026-05-05 00:07 -14.25982 93.51547 36956 ft 470 kts 319°
2026-05-05 00:08 -14.20951 93.47301 36956 ft 469 kts 319°
2026-05-05 00:08 -14.15898 93.43040 36951 ft 469 kts 319°
2026-05-05 00:09 -14.10842 93.38780 36949 ft 469 kts 319°
2026-05-05 00:09 -14.05798 93.34531 36944 ft 468 kts 319°
2026-05-05 00:10 -14.00745 93.30279 36945 ft 468 kts 319°
2026-05-05 00:10 -13.95700 93.26034 36931 ft 468 kts 319°
2026-05-05 00:11 -13.90654 93.21792 36945 ft 468 kts 319°
2026-05-05 00:11 -13.85607 93.17551 36931 ft 468 kts 319°
2026-05-05 00:12 -13.80592 93.13340 36937 ft 468 kts 319°
2026-05-05 00:12 -13.75540 93.09100 36943 ft 468 kts 320°
2026-05-05 00:13 -13.70492 93.04865 36933 ft 468 kts 320°
2026-05-05 00:13 -13.65437 93.00628 36933 ft 469 kts 320°
2026-05-05 00:14 -13.60379 92.96390 36939 ft 469 kts 320°
2026-05-05 00:14 -13.55340 92.92171 36938 ft 469 kts 320°
2026-05-05 00:15 -13.50281 92.87936 36932 ft 469 kts 320°
2026-05-05 00:15 -13.45209 92.83695 36939 ft 469 kts 320°
2026-05-05 00:16 -13.40172 92.79483 36929 ft 470 kts 320°
2026-05-05 00:16 -13.35101 92.75247 36934 ft 470 kts 320°
2026-05-05 00:17 -13.30026 92.71009 36919 ft 470 kts 320°
2026-05-05 00:17 -13.24939 92.66763 36933 ft 470 kts 320°
2026-05-05 00:18 -13.19854 92.62522 36934 ft 471 kts 320°
2026-05-05 00:18 -13.14767 92.58282 36928 ft 471 kts 320°
2026-05-05 00:19 -13.09680 92.54043 36924 ft 471 kts 320°
2026-05-05 00:19 -13.04593 92.49807 36932 ft 471 kts 320°
2026-05-05 00:20 -12.99500 92.45568 36923 ft 472 kts 320°
2026-05-05 00:20 -12.94400 92.41326 36923 ft 472 kts 320°
2026-05-05 00:21 -12.89333 92.37114 36923 ft 472 kts 320°
2026-05-05 00:21 -12.84237 92.32880 36920 ft 472 kts 320°
2026-05-05 00:22 -12.79138 92.28645 36937 ft 472 kts 320°
2026-05-05 00:22 -12.74037 92.24409 36913 ft 472 kts 321°
2026-05-05 00:23 -12.68931 92.20174 36919 ft 472 kts 321°
2026-05-05 00:23 -12.63829 92.15944 36929 ft 472 kts 321°
2026-05-05 00:24 -12.58749 92.11735 36924 ft 472 kts 321°
2026-05-05 00:24 -12.53646 92.07508 36913 ft 472 kts 321°
2026-05-05 00:25 -12.48537 92.03279 36918 ft 472 kts 321°
2026-05-05 00:25 -12.43435 91.99057 36920 ft 471 kts 321°
2026-05-05 00:26 -12.38333 91.94837 36922 ft 471 kts 321°
2026-05-05 00:26 -12.33227 91.90617 36924 ft 471 kts 321°
2026-05-05 00:27 -12.28124 91.86402 36895 ft 472 kts 321°
2026-05-05 00:27 -12.23052 91.82214 36900 ft 471 kts 321°
2026-05-05 00:28 -12.17944 91.77999 36916 ft 471 kts 321°
2026-05-05 00:28 -12.12837 91.73787 36916 ft 472 kts 321°
2026-05-05 00:29 -12.07716 91.69564 36904 ft 472 kts 321°
2026-05-05 00:29 -12.02601 91.65350 36897 ft 472 kts 321°
2026-05-05 00:30 -11.97520 91.61165 36921 ft 472 kts 321°
2026-05-05 00:30 -11.92402 91.56952 36898 ft 473 kts 321°
2026-05-05 00:31 -11.87280 91.52738 36916 ft 473 kts 321°
2026-05-05 00:31 -11.82154 91.48522 36904 ft 473 kts 321°
2026-05-05 00:32 -11.77027 91.44309 36906 ft 473 kts 321°
2026-05-05 00:32 -11.71896 91.40094 36906 ft 473 kts 321°
2026-05-05 00:33 -11.66796 91.35906 36910 ft 473 kts 321°
2026-05-05 00:33 -11.61665 91.31694 36904 ft 474 kts 321°
2026-05-05 00:34 -11.56518 91.27472 36898 ft 474 kts 321°
2026-05-05 00:34 -11.51373 91.23253 36904 ft 475 kts 321°
2026-05-05 00:35 -11.46223 91.19033 36900 ft 475 kts 321°
2026-05-05 00:35 -11.41069 91.14811 36904 ft 475 kts 321°
2026-05-05 00:36 -11.35914 91.10590 36908 ft 475 kts 322°
2026-05-05 00:36 -11.30794 91.06400 36910 ft 475 kts 322°
2026-05-05 00:37 -11.25638 91.02182 36904 ft 475 kts 322°
2026-05-05 00:37 -11.20469 90.97957 36905 ft 476 kts 322°
2026-05-05 00:38 -11.15304 90.93736 36902 ft 475 kts 322°
2026-05-05 00:38 -11.10142 90.89520 36900 ft 475 kts 322°
2026-05-05 00:39 -11.05854 90.86018 36899 ft 475 kts 322°
2026-05-05 00:39 -11.00692 90.81806 36895 ft 475 kts 322°
2026-05-05 00:40 -10.95533 90.77597 36898 ft 475 kts 322°
2026-05-05 00:40 -10.90373 90.73390 36895 ft 475 kts 322°
2026-05-05 00:41 -10.85215 90.69186 36893 ft 475 kts 322°
2026-05-05 00:41 -10.80058 90.64986 36893 ft 475 kts 322°
2026-05-05 00:42 -10.74919 90.60801 36894 ft 475 kts 322°
2026-05-05 00:42 -10.69762 90.56604 36890 ft 475 kts 322°
2026-05-05 00:43 -10.64596 90.52401 36888 ft 475 kts 322°
2026-05-05 00:43 -10.59439 90.48208 36890 ft 475 kts 322°
2026-05-05 00:44 -10.54272 90.44008 36892 ft 475 kts 322°
2026-05-05 00:44 -10.49148 90.39845 36892 ft 475 kts 322°
2026-05-05 00:45 -10.43973 90.35643 36890 ft 475 kts 322°
2026-05-05 00:45 -10.38830 90.31468 36890 ft 475 kts 322°
2026-05-05 00:46 -10.33670 90.27281 36889 ft 475 kts 322°
2026-05-05 00:46 -10.28504 90.23091 36890 ft 475 kts 322°
2026-05-05 00:47 -10.23325 90.18892 36889 ft 475 kts 322°
2026-05-05 00:47 -10.18162 90.14707 36871 ft 475 kts 322°
2026-05-05 00:48 -10.13024 90.10544 36870 ft 475 kts 322°
2026-05-05 00:48 -10.07839 90.06346 36875 ft 476 kts 322°
2026-05-05 00:49 -10.02663 90.02156 36880 ft 476 kts 322°
2026-05-05 00:49 -9.97688 89.97704 36876 ft 477 kts 315°
2026-05-05 00:50 -9.92995 89.92925 36888 ft 478 kts 316°
2026-05-05 00:50 -9.88295 89.88164 36887 ft 478 kts 316°
2026-05-05 00:51 -9.83609 89.83426 36887 ft 478 kts 316°
2026-05-05 00:51 -9.78892 89.78657 36887 ft 479 kts 316°
2026-05-05 00:52 -9.74172 89.73889 36888 ft 479 kts 316°
2026-05-05 00:52 -9.69446 89.69116 36890 ft 479 kts 316°
2026-05-05 00:53 -9.64747 89.64373 36896 ft 479 kts 316°
2026-05-05 00:53 -9.60027 89.59611 36892 ft 479 kts 316°
2026-05-05 00:54 -9.55301 89.54845 36886 ft 479 kts 316°
2026-05-05 00:54 -9.50579 89.50084 36886 ft 479 kts 316°
2026-05-05 00:55 -9.45856 89.45324 36888 ft 478 kts 316°
2026-05-05 00:55 -9.41132 89.40566 36872 ft 479 kts 316°
2026-05-05 00:56 -9.36410 89.35811 36869 ft 479 kts 316°
2026-05-05 00:56 -9.31684 89.31054 36873 ft 479 kts 316°
2026-05-05 00:57 -9.26951 89.26293 36879 ft 479 kts 316°
2026-05-05 00:57 -9.22254 89.21568 36883 ft 479 kts 316°
2026-05-05 00:58 -9.17515 89.16804 36883 ft 480 kts 316°
2026-05-05 00:58 -9.12784 89.12051 36887 ft 480 kts 316°
2026-05-05 00:59 -9.08044 89.07289 36888 ft 479 kts 316°
2026-05-05 00:59 -9.03311 89.02537 36893 ft 479 kts 316°
2026-05-05 01:00 -8.98582 88.97790 36891 ft 479 kts 316°
2026-05-05 01:00 -8.93854 88.93047 36888 ft 478 kts 316°
2026-05-05 01:01 -8.89132 88.88311 36882 ft 478 kts 316°
2026-05-05 01:01 -8.84444 88.83610 36874 ft 478 kts 316°
2026-05-05 01:02 -8.79720 88.78876 36871 ft 477 kts 316°
2026-05-05 01:02 -8.75004 88.74152 36868 ft 477 kts 316°
2026-05-05 01:03 -8.70287 88.69428 36864 ft 477 kts 316°
2026-05-05 01:03 -8.65572 88.64709 36865 ft 477 kts 316°
2026-05-05 01:04 -8.60856 88.59990 36868 ft 477 kts 316°
2026-05-05 01:04 -8.53807 88.52939 36871 ft 477 kts 316°
2026-05-05 01:05 -8.49081 88.48214 36873 ft 478 kts 316°
2026-05-05 01:05 -8.44347 88.43484 36862 ft 478 kts 316°
2026-05-05 01:06 -8.39612 88.38753 36868 ft 479 kts 316°
2026-05-05 01:06 -8.34865 88.34013 36872 ft 480 kts 316°
2026-05-05 01:07 -8.30117 88.29272 36877 ft 480 kts 316°
2026-05-05 01:07 -8.25365 88.24531 36880 ft 481 kts 316°
2026-05-05 01:08 -8.20626 88.19804 36881 ft 482 kts 316°
2026-05-05 01:08 -8.15855 88.15046 36884 ft 482 kts 316°
2026-05-05 01:09 -8.11085 88.10291 36886 ft 482 kts 316°
2026-05-05 01:09 -8.06304 88.05527 36868 ft 483 kts 316°
2026-05-05 01:10 -8.01519 88.00760 36862 ft 484 kts 316°
2026-05-05 01:10 -7.96714 87.95976 36867 ft 484 kts 316°
2026-05-05 01:11 -7.91943 87.91225 36876 ft 485 kts 317°
2026-05-05 01:11 -7.87137 87.86443 36868 ft 485 kts 316°
2026-05-05 01:12 -7.82319 87.81650 36879 ft 486 kts 316°
2026-05-05 01:12 -7.77505 87.76863 36879 ft 486 kts 317°
2026-05-05 01:13 -7.72712 87.72098 36876 ft 486 kts 316°
2026-05-05 01:13 -7.67890 87.67307 36872 ft 486 kts 317°
2026-05-05 01:14 -7.63066 87.62514 36873 ft 486 kts 317°
2026-05-05 01:14 -7.58240 87.57721 36883 ft 486 kts 317°
2026-05-05 01:15 -7.53455 87.52971 36866 ft 486 kts 317°
2026-05-05 01:15 -7.48630 87.48183 36851 ft 486 kts 317°
2026-05-05 01:16 -7.43812 87.43403 36851 ft 486 kts 317°
2026-05-05 01:16 -7.38995 87.38625 36867 ft 486 kts 317°
2026-05-05 01:17 -7.34179 87.33850 36851 ft 486 kts 317°
2026-05-05 01:17 -7.29353 87.29068 36866 ft 486 kts 317°
2026-05-05 01:18 -7.24535 87.24293 36871 ft 485 kts 317°
2026-05-05 01:18 -7.19718 87.19523 36856 ft 485 kts 317°
2026-05-05 01:19 -7.14906 87.14758 36850 ft 485 kts 317°
2026-05-05 01:19 -7.10097 87.09997 36862 ft 484 kts 316°
2026-05-05 01:20 -7.05316 87.05265 36861 ft 484 kts 317°
2026-05-05 01:20 -7.00509 87.00510 36845 ft 484 kts 317°
2026-05-05 01:21 -6.95724 86.95729 36839 ft 484 kts 316°
2026-05-05 01:21 -6.90966 86.90930 36837 ft 485 kts 316°
2026-05-05 01:22 -6.86196 86.86130 36844 ft 485 kts 316°
2026-05-05 01:22 -6.81421 86.81331 36832 ft 485 kts 316°
2026-05-05 01:23 -6.76663 86.76553 36824 ft 486 kts 316°
2026-05-05 01:23 -6.71873 86.71743 36835 ft 487 kts 316°
2026-05-05 01:24 -6.67076 86.66927 36849 ft 488 kts 316°
2026-05-05 01:24 -6.62272 86.62106 36848 ft 488 kts 316°
2026-05-05 01:25 -6.57453 86.57272 36849 ft 489 kts 316°
2026-05-05 01:25 -6.52628 86.52432 36837 ft 491 kts 316°
2026-05-05 01:26 -6.47794 86.47584 36849 ft 491 kts 316°
2026-05-05 01:26 -6.42951 86.42730 36836 ft 493 kts 316°
2026-05-05 01:27 -6.38082 86.37851 36849 ft 494 kts 316°
2026-05-05 01:27 -6.33213 86.32972 36850 ft 495 kts 316°
2026-05-05 01:28 -6.28330 86.28081 36853 ft 496 kts 316°
2026-05-05 01:28 -6.24267 86.24014 36860 ft 496 kts 316°
2026-05-05 01:29 -6.18577 86.18319 36868 ft 497 kts 316°
2026-05-05 01:29 -6.13678 86.13415 36856 ft 497 kts 316°
2026-05-05 01:30 -6.09567 86.09301 36854 ft 498 kts 316°
2026-05-05 01:30 -6.04688 86.04421 36858 ft 498 kts 316°
2026-05-05 01:31 -5.99774 85.99508 36855 ft 498 kts 316°
2026-05-05 01:31 -5.94866 85.94601 36854 ft 498 kts 316°
2026-05-05 01:32 -5.89950 85.89688 36851 ft 498 kts 316°
2026-05-05 01:32 -5.85042 85.84784 36847 ft 497 kts 316°
2026-05-05 01:33 -5.80164 85.79911 36844 ft 497 kts 316°
2026-05-05 01:33 -5.75257 85.75011 36841 ft 496 kts 316°
2026-05-05 01:34 -5.70359 85.70122 36838 ft 496 kts 316°
2026-05-05 01:34 -5.65464 85.65235 36834 ft 496 kts 316°
2026-05-05 01:35 -5.60576 85.60357 36832 ft 495 kts 316°
2026-05-05 01:35 -5.55683 85.55476 36829 ft 495 kts 316°
2026-05-05 01:36 -5.50827 85.50632 36826 ft 495 kts 316°
2026-05-05 01:36 -5.45938 85.45758 36826 ft 495 kts 316°
2026-05-05 01:37 -5.41051 85.40885 36830 ft 495 kts 316°
2026-05-05 01:37 -5.36165 85.36016 36829 ft 495 kts 316°
2026-05-05 01:38 -5.31279 85.31148 36826 ft 495 kts 316°
2026-05-05 01:38 -5.26385 85.26272 36824 ft 495 kts 316°
2026-05-05 01:39 -5.21524 85.21431 36827 ft 495 kts 316°
2026-05-05 01:39 -5.16630 85.16558 36829 ft 496 kts 316°
2026-05-05 01:40 -5.11729 85.11679 36832 ft 496 kts 316°
2026-05-05 01:40 -5.06826 85.06799 36835 ft 496 kts 316°
2026-05-05 01:41 -5.01923 85.01920 36843 ft 496 kts 316°
2026-05-05 01:41 -4.97028 84.97035 36841 ft 496 kts 316°
2026-05-05 01:42 -4.92152 84.92126 36839 ft 496 kts 316°
2026-05-05 01:42 -4.87279 84.87222 36840 ft 496 kts 316°
2026-05-05 01:43 -4.82427 84.82345 36845 ft 496 kts 316°
2026-05-05 01:43 -4.77553 84.77448 36841 ft 496 kts 316°
2026-05-05 01:44 -4.72678 84.72553 36839 ft 496 kts 316°
2026-05-05 01:44 -4.67802 84.67656 36839 ft 496 kts 316°
2026-05-05 01:45 -4.62929 84.62763 36839 ft 495 kts 316°
2026-05-05 01:45 -4.58055 84.57870 36839 ft 495 kts 316°
2026-05-05 01:46 -4.53216 84.53015 36841 ft 495 kts 316°
2026-05-05 01:46 -4.48348 84.48130 36838 ft 494 kts 316°
2026-05-05 01:47 -4.43489 84.43256 36839 ft 494 kts 316°
2026-05-05 01:47 -4.38624 84.38377 36839 ft 494 kts 316°
2026-05-05 01:48 -4.33773 84.33513 36836 ft 493 kts 316°
2026-05-05 01:48 -4.28919 84.28646 36834 ft 493 kts 316°
2026-05-05 01:49 -4.24068 84.23783 36840 ft 493 kts 316°
2026-05-05 01:49 -4.19226 84.18930 36838 ft 492 kts 316°
2026-05-05 01:50 -4.14411 84.14107 36836 ft 492 kts 316°
2026-05-05 01:50 -4.09565 84.09252 36839 ft 492 kts 316°
2026-05-05 01:51 -4.04724 84.04402 36836 ft 492 kts 316°
2026-05-05 01:51 -3.99889 83.99561 36836 ft 492 kts 316°
2026-05-05 01:52 -3.95050 83.94716 36838 ft 492 kts 316°
2026-05-05 01:52 -3.90208 83.89868 36845 ft 492 kts 317°
2026-05-05 01:53 -3.85366 83.85022 36842 ft 492 kts 317°
2026-05-05 01:53 -3.80550 83.80203 36842 ft 491 kts 317°
2026-05-05 01:54 -3.75708 83.75356 36843 ft 491 kts 317°
2026-05-05 01:54 -3.70870 83.70517 36841 ft 491 kts 317°
2026-05-05 01:55 -3.66033 83.65680 36843 ft 491 kts 317°
2026-05-05 01:55 -3.61198 83.60844 36842 ft 491 kts 317°
2026-05-05 01:56 -3.56357 83.56003 36842 ft 491 kts 317°
2026-05-05 01:56 -3.51522 83.51168 36854 ft 491 kts 317°
2026-05-05 01:57 -3.46723 83.46372 36856 ft 490 kts 317°
2026-05-05 01:57 -3.41894 83.41546 36858 ft 490 kts 317°
2026-05-05 01:58 -3.37072 83.36727 36852 ft 490 kts 317°
2026-05-05 01:58 -3.32252 83.31911 36851 ft 489 kts 317°
2026-05-05 01:59 -3.27431 83.27095 36850 ft 489 kts 317°
2026-05-05 01:59 -3.22612 83.22281 36847 ft 488 kts 317°
2026-05-05 02:00 -3.17835 83.17510 36851 ft 488 kts 317°
2026-05-05 02:00 -3.13027 83.12710 36865 ft 487 kts 317°
2026-05-05 02:01 -3.08236 83.07925 36859 ft 487 kts 317°
2026-05-05 02:01 -3.03437 83.03134 36856 ft 487 kts 317°
2026-05-05 02:02 -2.98643 82.98350 36847 ft 487 kts 316°
2026-05-05 02:02 -2.93849 82.93564 36848 ft 487 kts 316°
2026-05-05 02:03 -2.89048 82.88773 36849 ft 487 kts 316°
2026-05-05 02:03 -2.84243 82.83978 36852 ft 488 kts 316°
2026-05-05 02:04 -2.79458 82.79204 36855 ft 488 kts 316°
2026-05-05 02:04 -2.74646 82.74404 36846 ft 489 kts 316°
2026-05-05 02:05 -2.69820 82.69590 36853 ft 490 kts 316°
2026-05-05 02:05 -2.64985 82.64768 36859 ft 491 kts 316°
2026-05-05 02:06 -2.60143 82.59939 36856 ft 492 kts 317°
2026-05-05 02:06 -2.55315 82.55126 36863 ft 493 kts 317°
2026-05-05 02:07 -2.50453 82.50279 36870 ft 494 kts 316°
2026-05-05 02:07 -2.45566 82.45407 36876 ft 495 kts 317°
2026-05-05 02:08 -2.40684 82.40541 36885 ft 495 kts 317°
2026-05-05 02:08 -2.35827 82.35699 36882 ft 496 kts 317°
2026-05-05 02:09 -2.30933 82.30823 36885 ft 496 kts 317°
2026-05-05 02:09 -2.26036 82.25943 36892 ft 496 kts 317°
2026-05-05 02:10 -2.21146 82.21070 36893 ft 496 kts 317°
2026-05-05 02:10 -2.16261 82.16204 36892 ft 495 kts 317°
2026-05-05 02:11 -2.11373 82.11335 36886 ft 495 kts 317°
2026-05-05 02:11 -2.06497 82.06478 36880 ft 494 kts 317°
2026-05-05 02:12 -1.99334 81.99086 36875 ft 494 kts 311°
2026-05-05 02:13 -1.95198 81.93588 36867 ft 494 kts 309°
2026-05-05 02:13 -1.91103 81.88120 36863 ft 494 kts 309°
2026-05-05 02:14 -1.86980 81.82620 36859 ft 493 kts 309°
2026-05-05 02:14 -1.82864 81.77125 36858 ft 493 kts 309°
2026-05-05 02:15 -1.78755 81.71640 36857 ft 493 kts 309°
2026-05-05 02:15 -1.74643 81.66150 36857 ft 493 kts 309°
2026-05-05 02:16 -1.70529 81.60659 36861 ft 493 kts 309°
2026-05-05 02:16 -1.67111 81.56097 36862 ft 493 kts 309°
2026-05-05 02:17 -1.62995 81.50603 36867 ft 493 kts 309°
2026-05-05 02:17 -1.58209 81.44216 36870 ft 494 kts 309°
2026-05-05 02:18 -1.54751 81.39601 36873 ft 494 kts 309°
2026-05-05 02:18 -1.50658 81.34140 36874 ft 494 kts 309°
2026-05-05 02:19 -1.46530 81.28633 36872 ft 495 kts 308°
2026-05-05 02:19 -1.42396 81.23117 36866 ft 496 kts 309°
2026-05-05 02:20 -1.38255 81.17592 36879 ft 496 kts 308°
2026-05-05 02:20 -1.34116 81.12071 36884 ft 497 kts 308°
2026-05-05 02:21 -1.29967 81.06537 36884 ft 497 kts 308°
2026-05-05 02:21 -1.25820 81.01005 36882 ft 498 kts 308°
2026-05-05 02:22 -1.21688 80.95495 36886 ft 498 kts 309°
2026-05-05 02:22 -1.17533 80.89953 36903 ft 498 kts 308°
2026-05-05 02:23 -1.13375 80.84409 36905 ft 498 kts 308°
2026-05-05 02:23 -1.09215 80.78861 36897 ft 498 kts 308°
2026-05-05 02:24 -1.05086 80.73354 36894 ft 498 kts 308°
2026-05-05 02:24 -1.00929 80.67811 36885 ft 498 kts 309°
2026-05-05 02:25 -0.96765 80.62260 36885 ft 498 kts 308°
2026-05-05 02:25 -0.92630 80.56748 36895 ft 498 kts 308°
2026-05-05 02:26 -0.88475 80.51209 36893 ft 498 kts 308°
2026-05-05 02:26 -0.84319 80.45666 36868 ft 498 kts 308°
2026-05-05 02:27 -0.80161 80.40123 36893 ft 498 kts 308°
2026-05-05 02:27 -0.76002 80.34578 36876 ft 498 kts 308°
2026-05-05 02:28 -0.71847 80.29043 36894 ft 498 kts 307°
2026-05-05 02:28 -0.67713 80.23532 36886 ft 498 kts 307°
2026-05-05 02:29 -0.63551 80.17984 36893 ft 498 kts 307°
2026-05-05 02:29 -0.59394 80.12443 36888 ft 498 kts 308°
2026-05-05 02:30 -0.55238 80.06904 36897 ft 498 kts 307°
2026-05-05 02:30 -0.51079 80.01361 36892 ft 498 kts 308°
2026-05-05 02:31 -0.46921 79.95818 36889 ft 498 kts 308°
2026-05-05 02:31 -0.42789 79.90312 36889 ft 498 kts 308°
2026-05-05 02:32 -0.38634 79.84775 36886 ft 498 kts 308°
2026-05-05 02:32 -0.34471 79.79228 36885 ft 498 kts 307°
2026-05-05 02:33 -0.30310 79.73682 36879 ft 499 kts 307°
2026-05-05 02:33 -0.26149 79.68137 36882 ft 499 kts 307°
2026-05-05 02:34 -0.21981 79.62582 36903 ft 499 kts 307°
2026-05-05 02:34 -0.17820 79.57037 36897 ft 499 kts 307°
2026-05-05 02:35 -0.13655 79.51487 36894 ft 499 kts 307°
2026-05-05 02:35 -0.09524 79.45982 36904 ft 498 kts 307°
2026-05-05 02:36 -0.05364 79.40439 36870 ft 499 kts 307°
2026-05-05 02:36 -0.01201 79.34891 36895 ft 498 kts 307°
2026-05-05 02:37 0.02963 79.29342 36877 ft 499 kts 307°
2026-05-05 02:37 0.07127 79.23794 36898 ft 499 kts 307°
2026-05-05 02:38 0.11293 79.18242 36895 ft 499 kts 307°
2026-05-05 02:38 0.15457 79.12693 36882 ft 499 kts 307°
2026-05-05 02:39 0.19597 79.07176 36902 ft 499 kts 307°
2026-05-05 02:39 0.23755 79.01635 36922 ft 498 kts 307°
2026-05-05 02:40 0.27916 78.96090 36912 ft 497 kts 307°
2026-05-05 02:40 0.32057 78.90572 36906 ft 496 kts 307°
2026-05-05 02:41 0.36164 78.85099 36899 ft 495 kts 307°
2026-05-05 02:41 0.40289 78.79601 36887 ft 494 kts 307°
2026-05-05 02:42 0.44401 78.74121 36883 ft 493 kts 307°
2026-05-05 02:42 0.48514 78.68640 36882 ft 492 kts 307°
2026-05-05 02:43 0.52616 78.63172 36896 ft 491 kts 307°
2026-05-05 02:43 0.56705 78.57723 36896 ft 489 kts 307°
2026-05-05 02:44 0.60780 78.52292 36879 ft 488 kts 307°
2026-05-05 02:44 0.64855 78.46860 36873 ft 488 kts 307°
2026-05-05 02:45 0.68921 78.41440 36874 ft 487 kts 307°
2026-05-05 02:45 0.72979 78.36031 36869 ft 486 kts 307°
2026-05-05 02:46 0.77041 78.30618 36841 ft 487 kts 307°
2026-05-05 02:46 0.81105 78.25200 36842 ft 487 kts 307°
2026-05-05 02:47 0.85144 78.19815 36847 ft 488 kts 307°
2026-05-05 02:47 0.89221 78.14381 36856 ft 489 kts 307°
2026-05-05 02:48 0.93304 78.08936 36865 ft 490 kts 307°
2026-05-05 02:48 0.97400 78.03475 36872 ft 491 kts 307°
2026-05-05 02:49 1.01686 77.98168 36877 ft 491 kts 314°
2026-05-05 02:49 1.06337 77.93208 36874 ft 492 kts 313°
2026-05-05 02:50 1.11000 77.88192 36880 ft 494 kts 314°
2026-05-05 02:50 1.15683 77.83158 36880 ft 495 kts 313°
2026-05-05 02:51 1.20381 77.78108 36878 ft 497 kts 313°
2026-05-05 02:51 1.25090 77.73049 36896 ft 498 kts 313°
2026-05-05 02:52 1.29809 77.67978 36908 ft 498 kts 313°
2026-05-05 02:52 1.34536 77.62897 36906 ft 499 kts 314°
2026-05-05 02:53 1.39241 77.57841 36897 ft 499 kts 314°
2026-05-05 02:53 1.44005 77.52719 36862 ft 501 kts 314°
2026-05-05 02:54 1.48726 77.47644 36870 ft 502 kts 314°
2026-05-05 02:54 1.53482 77.42532 36871 ft 503 kts 314°
2026-05-05 02:55 1.58248 77.37409 36898 ft 503 kts 314°
2026-05-05 02:55 1.63018 77.32280 36886 ft 504 kts 314°
2026-05-05 02:56 1.67795 77.27144 36900 ft 504 kts 314°
2026-05-05 02:56 1.72575 77.22004 36915 ft 504 kts 314°
2026-05-05 02:57 1.77359 77.16859 36900 ft 505 kts 314°
2026-05-05 02:57 1.82137 77.11720 36908 ft 504 kts 314°
2026-05-05 02:58 1.86912 77.06584 36907 ft 504 kts 313°
2026-05-05 02:58 1.91694 77.01441 36878 ft 505 kts 314°
2026-05-05 02:59 1.96441 76.96333 36895 ft 504 kts 313°
2026-05-05 02:59 2.01217 76.91195 36892 ft 504 kts 314°
2026-05-05 03:00 2.05986 76.86064 36901 ft 503 kts 313°
2026-05-05 03:00 2.10754 76.80933 36908 ft 503 kts 313°
2026-05-05 03:01 2.15513 76.75811 36899 ft 502 kts 313°
2026-05-05 03:01 2.20266 76.70695 36895 ft 501 kts 313°
2026-05-05 03:02 2.25013 76.65586 36899 ft 501 kts 313°
2026-05-05 03:02 2.29749 76.60488 36885 ft 500 kts 313°
2026-05-05 03:03 2.34484 76.55390 36883 ft 499 kts 313°
2026-05-05 03:03 2.39207 76.50304 36873 ft 499 kts 313°
2026-05-05 03:04 2.43897 76.45253 36893 ft 498 kts 313°
2026-05-05 03:04 2.48609 76.40179 36862 ft 498 kts 313°
2026-05-05 03:05 2.52543 76.35943 36891 ft 498 kts 313°
2026-05-05 03:05 2.57254 76.30867 36886 ft 498 kts 313°
2026-05-05 03:06 2.61965 76.25792 36893 ft 497 kts 313°
2026-05-05 03:06 2.66678 76.20713 36885 ft 497 kts 313°
2026-05-05 03:07 2.71361 76.15668 36874 ft 497 kts 313°
2026-05-05 03:07 2.76063 76.10600 36882 ft 497 kts 313°
2026-05-05 03:08 2.80784 76.05511 36853 ft 498 kts 314°
2026-05-05 03:08 2.85505 76.00422 36866 ft 499 kts 314°
2026-05-05 03:09 2.90237 75.95321 36882 ft 500 kts 313°
2026-05-05 03:09 2.94960 75.90228 36893 ft 500 kts 314°
2026-05-05 03:10 2.99661 75.85159 36891 ft 501 kts 313°
2026-05-05 03:10 3.04397 75.80050 36894 ft 501 kts 313°
2026-05-05 03:11 3.09140 75.74934 36900 ft 501 kts 314°
2026-05-05 03:11 3.13879 75.69821 36897 ft 501 kts 314°
2026-05-05 03:12 3.18624 75.64700 36879 ft 501 kts 314°
2026-05-05 03:12 3.23362 75.59589 36907 ft 501 kts 314°
2026-05-05 03:13 3.28102 75.54472 36898 ft 501 kts 314°
2026-05-05 03:13 3.32813 75.49386 36883 ft 501 kts 314°
2026-05-05 03:14 3.37560 75.44261 36890 ft 501 kts 314°
2026-05-05 03:14 3.42295 75.39149 36916 ft 500 kts 313°
2026-05-05 03:15 3.47035 75.34029 36889 ft 501 kts 314°
2026-05-05 03:15 3.51769 75.28915 36897 ft 500 kts 313°
2026-05-05 03:16 3.56462 75.23846 36911 ft 499 kts 313°
2026-05-05 03:16 3.61176 75.18753 36906 ft 498 kts 313°
2026-05-05 03:17 3.65891 75.13657 36903 ft 498 kts 313°
2026-05-05 03:17 3.70599 75.08567 36898 ft 498 kts 314°
2026-05-05 03:18 3.75298 75.03488 36906 ft 497 kts 313°
2026-05-05 03:18 3.79996 74.98408 36885 ft 497 kts 314°
2026-05-05 03:19 3.87045 74.90785 36895 ft 496 kts 314°
2026-05-05 03:19 3.91736 74.85711 36885 ft 497 kts 314°
2026-05-05 03:20 3.96428 74.80635 36899 ft 496 kts 313°
2026-05-05 03:20 4.01094 74.75585 36889 ft 496 kts 314°
2026-05-05 03:21 4.05786 74.70508 36902 ft 496 kts 314°
2026-05-05 03:21 4.10481 74.65425 36910 ft 496 kts 313°
2026-05-05 03:22 4.15174 74.60345 36912 ft 496 kts 313°
2026-05-05 03:22 4.19862 74.55266 36889 ft 497 kts 314°
2026-05-05 03:23 4.24555 74.50183 36895 ft 497 kts 314°
2026-05-05 03:23 4.29218 74.45134 36920 ft 497 kts 313°
2026-05-05 03:24 4.33915 74.40044 36902 ft 497 kts 314°
2026-05-05 03:24 4.38612 74.34952 36904 ft 497 kts 314°
2026-05-05 03:25 4.43317 74.29854 36917 ft 497 kts 314°
2026-05-05 03:25 4.48014 74.24763 36926 ft 497 kts 314°
2026-05-05 03:26 4.52706 74.19674 36924 ft 497 kts 313°
2026-05-05 03:26 4.57367 74.14618 36912 ft 497 kts 314°
2026-05-05 03:27 4.62053 74.09535 36916 ft 496 kts 313°
2026-05-05 03:27 4.66735 74.04455 36919 ft 496 kts 313°
2026-05-05 03:28 4.71414 73.99375 36911 ft 495 kts 314°
2026-05-05 03:28 4.76092 73.94299 36916 ft 495 kts 314°
2026-05-05 03:29 4.80765 73.89224 36896 ft 495 kts 314°
2026-05-05 03:29 4.85407 73.84183 36902 ft 495 kts 314°
2026-05-05 03:30 4.90080 73.79109 36915 ft 495 kts 313°
2026-05-05 03:30 4.94747 73.74037 36913 ft 495 kts 314°
2026-05-05 03:31 4.99421 73.68957 36906 ft 496 kts 314°
2026-05-05 03:31 5.04105 73.63866 36912 ft 496 kts 314°
2026-05-05 03:32 5.08790 73.58774 36917 ft 496 kts 313°
2026-05-05 03:32 5.13472 73.53682 36916 ft 497 kts 313°
2026-05-05 03:33 5.18157 73.48585 36927 ft 497 kts 313°
2026-05-05 03:33 5.22842 73.43488 36926 ft 497 kts 313°
2026-05-05 03:34 5.27500 73.38420 36936 ft 497 kts 313°
2026-05-05 03:34 5.32191 73.33313 36933 ft 497 kts 313°
2026-05-05 03:35 5.36873 73.28215 36926 ft 497 kts 313°
2026-05-05 03:35 5.41557 73.23114 36916 ft 497 kts 313°
2026-05-05 03:36 5.46239 73.18014 36910 ft 497 kts 313°
2026-05-05 03:36 5.50926 73.12909 36916 ft 497 kts 313°
2026-05-05 03:37 5.55608 73.07805 36922 ft 497 kts 313°
2026-05-05 03:37 5.60293 73.02698 36913 ft 497 kts 313°
2026-05-05 03:38 5.64976 72.97592 36931 ft 496 kts 313°
2026-05-05 03:38 5.69627 72.92520 36910 ft 497 kts 313°
2026-05-05 03:39 5.74307 72.87413 36912 ft 497 kts 313°
2026-05-05 03:39 5.78994 72.82299 36919 ft 497 kts 313°
2026-05-05 03:40 5.83675 72.77190 36923 ft 497 kts 312°
2026-05-05 03:40 5.88363 72.72072 36914 ft 498 kts 312°
2026-05-05 03:41 5.93059 72.66943 36920 ft 498 kts 312°
2026-05-05 03:41 5.97753 72.61815 36929 ft 498 kts 312°
2026-05-05 03:42 6.02449 72.56684 36936 ft 498 kts 312°
2026-05-05 03:42 6.07139 72.51557 36934 ft 498 kts 312°
2026-05-05 03:43 6.11836 72.46422 36934 ft 498 kts 312°
2026-05-05 03:43 6.16503 72.41319 36908 ft 499 kts 312°
2026-05-05 03:44 6.21194 72.36188 36912 ft 499 kts 312°
2026-05-05 03:44 6.25886 72.31053 36914 ft 499 kts 312°
2026-05-05 03:45 6.30581 72.25914 36929 ft 499 kts 312°
2026-05-05 03:45 6.35272 72.20778 36919 ft 499 kts 312°
2026-05-05 03:46 6.39977 72.15626 36909 ft 500 kts 312°
2026-05-05 03:46 6.44682 72.10472 36917 ft 500 kts 312°
2026-05-05 03:47 6.49398 72.05304 36920 ft 501 kts 312°
2026-05-05 03:47 6.54082 72.00169 36933 ft 501 kts 312°
2026-05-05 03:48 6.58802 71.94994 36939 ft 501 kts 312°
2026-05-05 03:48 6.63513 71.89827 36938 ft 501 kts 312°
2026-05-05 03:49 6.68234 71.84647 36929 ft 502 kts 312°
2026-05-05 03:49 6.72953 71.79468 36930 ft 502 kts 312°
2026-05-05 03:50 6.77641 71.74322 36930 ft 502 kts 312°
2026-05-05 03:50 6.82367 71.69132 36929 ft 502 kts 312°
2026-05-05 03:51 6.87075 71.63960 36940 ft 501 kts 312°
2026-05-05 03:51 6.91787 71.58783 36935 ft 501 kts 312°
2026-05-05 03:52 6.96487 71.53616 36932 ft 500 kts 312°
2026-05-05 03:52 7.00388 71.49327 36929 ft 500 kts 312°
2026-05-05 03:53 7.05083 71.44164 36919 ft 499 kts 312°
2026-05-05 03:53 7.09781 71.38995 36916 ft 499 kts 312°
2026-05-05 03:54 7.14463 71.33842 36919 ft 499 kts 312°
2026-05-05 03:54 7.19148 71.28684 36918 ft 498 kts 312°
2026-05-05 03:55 7.23830 71.23529 36921 ft 498 kts 312°
2026-05-05 03:55 7.28468 71.18420 36919 ft 498 kts 312°
2026-05-05 03:56 7.33143 71.13269 36919 ft 497 kts 312°
2026-05-05 03:56 7.37814 71.08121 36918 ft 497 kts 312°
2026-05-05 03:57 7.42480 71.02977 36915 ft 497 kts 312°
2026-05-05 03:57 7.47148 70.97829 36914 ft 497 kts 312°
2026-05-05 03:58 7.52116 70.92989 36916 ft 497 kts 321°
2026-05-05 03:58 7.57578 70.88708 36915 ft 497 kts 321°
2026-05-05 03:59 7.63026 70.84404 36904 ft 498 kts 321°
2026-05-05 03:59 7.68478 70.80097 36907 ft 498 kts 321°
2026-05-05 04:00 7.73945 70.75781 36912 ft 499 kts 321°
2026-05-05 04:00 7.79385 70.71484 36913 ft 499 kts 321°
2026-05-05 04:01 7.84864 70.67156 36917 ft 500 kts 321°
2026-05-05 04:01 7.90340 70.62827 36927 ft 500 kts 322°
2026-05-05 04:02 7.95826 70.58491 36924 ft 501 kts 322°
2026-05-05 04:02 8.01307 70.54156 36921 ft 501 kts 322°
2026-05-05 04:03 8.06793 70.49815 36925 ft 501 kts 322°
2026-05-05 04:03 8.12285 70.45470 36925 ft 501 kts 322°
2026-05-05 04:04 8.17767 70.41130 36927 ft 501 kts 322°
2026-05-05 04:04 8.23220 70.36812 36911 ft 501 kts 321°
2026-05-05 04:05 8.28710 70.32462 36912 ft 502 kts 321°
2026-05-05 04:05 8.34207 70.28104 36914 ft 502 kts 321°
2026-05-05 04:06 8.39700 70.23749 36914 ft 502 kts 321°
2026-05-05 04:06 8.45201 70.19386 36917 ft 503 kts 322°
2026-05-05 04:07 8.50698 70.15024 36918 ft 503 kts 322°
2026-05-05 04:07 8.56211 70.10649 36917 ft 503 kts 322°
2026-05-05 04:08 8.61685 70.06302 36926 ft 503 kts 322°
2026-05-05 04:08 8.67189 70.01930 36934 ft 502 kts 322°
2026-05-05 04:09 8.72691 69.97558 36927 ft 502 kts 322°
2026-05-05 04:09 8.78183 69.93192 36927 ft 502 kts 322°
2026-05-05 04:10 8.83667 69.88831 36916 ft 502 kts 322°
2026-05-05 04:10 8.89148 69.84470 36914 ft 501 kts 322°
2026-05-05 04:11 8.94595 69.80136 36907 ft 501 kts 322°
2026-05-05 04:11 9.00072 69.75775 36909 ft 501 kts 322°
2026-05-05 04:12 9.05549 69.71413 36912 ft 501 kts 322°
2026-05-05 04:12 9.11029 69.67046 36910 ft 501 kts 322°
2026-05-05 04:13 9.16510 69.62677 36913 ft 501 kts 322°
2026-05-05 04:13 9.21985 69.58311 36914 ft 501 kts 322°
2026-05-05 04:14 9.27466 69.53938 36918 ft 501 kts 322°
2026-05-05 04:14 9.32946 69.49564 36928 ft 501 kts 322°
2026-05-05 04:15 9.38386 69.45221 36929 ft 501 kts 322°
2026-05-05 04:15 9.43846 69.40860 36919 ft 500 kts 322°
2026-05-05 04:16 9.49314 69.36491 36925 ft 500 kts 322°
2026-05-05 04:16 9.54776 69.32124 36912 ft 500 kts 322°
2026-05-05 04:17 9.60231 69.27761 36927 ft 499 kts 322°
2026-05-05 04:17 9.65686 69.23397 36927 ft 499 kts 322°
2026-05-05 04:18 9.71128 69.19041 36930 ft 498 kts 322°
2026-05-05 04:18 9.76572 69.14680 36917 ft 498 kts 322°
2026-05-05 04:19 9.81967 69.10352 36924 ft 497 kts 322°
2026-05-05 04:19 9.87398 69.05994 36913 ft 497 kts 322°
2026-05-05 04:20 9.92816 69.01647 36925 ft 496 kts 322°
2026-05-05 04:20 9.98222 68.97306 36921 ft 496 kts 322°
2026-05-05 04:21 10.03627 68.92964 36921 ft 495 kts 322°
2026-05-05 04:21 10.09025 68.88626 36914 ft 495 kts 322°
2026-05-05 04:22 10.14419 68.84289 36906 ft 495 kts 322°
2026-05-05 04:22 10.19817 68.79947 36907 ft 495 kts 322°
2026-05-05 04:23 10.25190 68.75623 36914 ft 495 kts 322°
2026-05-05 04:23 10.30593 68.71273 36909 ft 495 kts 322°
2026-05-05 04:24 10.35987 68.66929 36918 ft 495 kts 322°
2026-05-05 04:25 10.44100 68.60390 36918 ft 495 kts 322°
2026-05-05 04:25 10.49498 68.56038 36919 ft 496 kts 322°
2026-05-05 04:26 10.54875 68.51701 36925 ft 496 kts 322°
2026-05-05 04:26 10.60290 68.47330 36926 ft 496 kts 322°
2026-05-05 04:27 10.65701 68.42960 36925 ft 496 kts 322°
2026-05-05 04:27 10.71100 68.38600 36927 ft 496 kts 322°
2026-05-05 04:28 10.76508 68.34228 36924 ft 496 kts 322°
2026-05-05 04:28 10.81879 68.29885 36927 ft 496 kts 322°
2026-05-05 04:29 10.87284 68.25513 36924 ft 496 kts 322°
2026-05-05 04:29 10.92689 68.21138 36927 ft 496 kts 322°
2026-05-05 04:30 10.98088 68.16766 36923 ft 496 kts 322°
2026-05-05 04:30 11.03493 68.12387 36925 ft 496 kts 322°
2026-05-05 04:31 11.08895 68.08009 36922 ft 496 kts 322°
2026-05-05 04:31 11.14295 68.03630 36922 ft 496 kts 322°
2026-05-05 04:32 11.19697 67.99246 36917 ft 496 kts 322°
2026-05-05 04:32 11.25095 67.94865 36921 ft 496 kts 322°
2026-05-05 04:33 11.30460 67.90508 36922 ft 496 kts 322°
2026-05-05 04:33 11.35862 67.86118 36923 ft 496 kts 322°
2026-05-05 04:34 11.41263 67.81728 36921 ft 496 kts 322°
2026-05-05 04:34 11.46663 67.77335 36921 ft 496 kts 322°
2026-05-05 04:35 11.52058 67.72945 36923 ft 496 kts 322°
2026-05-05 04:35 11.57456 67.68550 36922 ft 497 kts 322°
2026-05-05 04:36 11.62860 67.64148 36922 ft 497 kts 322°
2026-05-05 04:36 11.68262 67.59745 36923 ft 497 kts 322°
2026-05-05 04:37 11.73628 67.55370 36924 ft 497 kts 322°
2026-05-05 04:37 11.79035 67.50959 36922 ft 497 kts 322°